Chanute, KS

8:11 PM CDT on June 27, 2017 (GMT -0500)
Chanute Martin Johnson

Weather History for KCNU - February, 2013

Change the Weather History Date:

Tuesday, February 19, 2013

  Actual Average Record
Temperature  
Mean Temperature 33 °F 39 °F  
Max Temperature 43 °F 49 °F 74 °F (1930)
Min Temperature 22 °F 28 °F -1 °F (1903)
Degree Days  
Heating Degree Days 32 26  
Month to date heating degree days 494 551  
Since 1 July heating degree days 2783 3350  
Cooling Degree Days 0 0  
Month to date cooling degree days 0 0  
Year to date cooling degree days 1 0  
Moisture  
Dew Point 13 °F    
Average Humidity 54    
Maximum Humidity 84    
Minimum Humidity 24    
Precipitation  
Precipitation 0.00 in 0.08 in 1.65 in (1994)
Month to date precipitation 0.47 1.18  
Year to date precipitation 2.84 2.44  
Sea Level Pressure  
Sea Level Pressure 30.28 in    
Wind  
Wind Speed 8 mph (NNW)    
Max Wind Speed 18 mph    
Max Gust Speed 24 mph    
Visibility 10 miles    
Events      
T = Trace of Precipitation, MM = Missing Value Source: NWS Daily Summary

Daily Weather History Graph

Daily Weather History Graph

Search for Another Location

Airport or City:

Trip Planner

Search our weather history database for the weather conditions in past years. The results will help you decide how hot, cold, wet, or windy it might be!

Date:

Astronomy

Feb. 19, 2013 Rise Set
Actual Time 7:06 AM CST 6:05 PM CST
Civil Twilight 6:39 AM CST 6:32 PM CST
Nautical Twilight 6:09 AM CST 7:02 PM CST
Astronomical Twilight 5:38 AM CST 7:33 PM CST
Moon 12:41 PM CST (2/19) 2:35 AM CST (2/19)
Length of Visible Light 11h 52m
Length of Day
10h 59m
Waxing Gibbous, 67% of the Moon is Illuminated
Feb 19
Waxing Gibbous
Feb 25
Full
Mar 4
Last Quarter
Mar 11
New
Mar 19
First Quarter

Hourly Weather History & Observations

Time (CST) Temp. Windchill Dew Point Humidity Pressure Visibility Wind Dir Wind Speed Gust Speed Precip Events Conditions
12:52 AM 26.1 °F 21.9 °F 19.0 °F 75% 30.17 in 10.0 mi WNW 3.5 mph - N/A   Clear
1:52 AM 25.0 °F 18.1 °F 18.0 °F 75% 30.19 in 10.0 mi WSW 5.8 mph - N/A   Clear
2:52 AM 24.1 °F 19.7 °F 17.1 °F 75% 30.18 in 10.0 mi WNW 3.5 mph - N/A   Clear
3:52 AM 24.1 °F 19.7 °F 17.1 °F 75% 30.19 in 10.0 mi WNW 3.5 mph - N/A   Clear
4:52 AM 23.0 °F 17.0 °F 17.1 °F 78% 30.21 in 10.0 mi West 4.6 mph - N/A   Clear
5:52 AM 23.0 °F 17.0 °F 17.1 °F 78% 30.24 in 10.0 mi West 4.6 mph - N/A   Clear
7:52 AM 25.0 °F 18.1 °F 18.0 °F 75% 30.29 in 10.0 mi NW 5.8 mph - N/A   Clear
8:52 AM 28.9 °F 18.6 °F 19.0 °F 67% 30.32 in 10.0 mi NNW 12.7 mph 20.7 mph N/A   Clear
9:52 AM 33.1 °F 23.0 °F 17.1 °F 52% 30.34 in 10.0 mi NNW 15.0 mph - N/A   Clear
10:52 AM 35.1 °F 25.2 °F 15.1 °F 44% 30.36 in 10.0 mi NNW 16.1 mph 24.2 mph N/A   Clear
12:52 PM 39.9 °F 32.1 °F 12.9 °F 33% 30.35 in 10.0 mi NNW 13.8 mph - N/A   Clear
1:52 PM 42.1 °F 34.9 °F 9.0 °F 26% 30.34 in 10.0 mi NW 13.8 mph 19.6 mph N/A   Clear
2:52 PM 42.1 °F 36.1 °F 10.0 °F 27% 30.31 in 10.0 mi NNW 10.4 mph - N/A   Clear
3:52 PM 43.0 °F 38.2 °F 8.1 °F 24% 30.29 in 10.0 mi North 8.1 mph - N/A   Clear
4:52 PM 42.1 °F 39.2 °F 9.0 °F 26% 30.30 in 10.0 mi North 4.6 mph - N/A   Clear
6:52 PM 35.1 °F - 10.0 °F 35% 30.30 in 10.0 mi North - - N/A   Clear
7:52 PM 30.9 °F 26.2 °F 10.9 °F 43% 30.31 in 10.0 mi NE 4.6 mph - N/A   Clear
8:52 PM 30.0 °F 25.2 °F 9.0 °F 41% 30.30 in 10.0 mi NE 4.6 mph - N/A   Clear
9:52 PM 28.9 °F 22.8 °F 9.0 °F 43% 30.32 in 10.0 mi NE 5.8 mph - N/A   Clear
10:52 PM 28.0 °F 21.7 °F 9.0 °F 45% 30.33 in 10.0 mi NE 5.8 mph - N/A   Clear
11:52 PM 28.9 °F 21.1 °F 7.0 °F 40% 30.33 in 10.0 mi NE 8.1 mph - N/A   Clear